Location: Newark
(31.9000°N, 35.2000°E)
Time: 15:19:14
(UTC+00:00)

N. Korean satellite - Visible Passes

Search period start: 19 October 2019 00:00
Search period end: 29 October 2019 00:00
Orbit: 455 x 508 km, 97.2° (Epoch: 19 October)

Date Brightness Start Highest point End Pass type
(mag) Time Alt. Az. Time Alt. Az. Time Alt. Az.
19 Oct 10.1 15:48:48 10° SW 15:50:37 14° W 15:52:27 10° WNW visible
20 Oct 7.4 03:17:52 10° NNE 03:21:28 59° E 03:25:05 10° S visible
20 Oct 8.7 15:22:09 10° SSW 15:25:13 31° W 15:28:18 10° NNW visible
21 Oct 9.3 02:53:05 10° NE 02:56:09 25° E 02:59:13 10° SSE visible
22 Oct 10.4 02:29:26 10° ENE 02:30:43 12° E 02:32:02 10° ESE visible
23 Oct 9.9 15:40:22 10° SW 15:42:44 18° W 15:45:07 10° NW visible
24 Oct 8.0 03:10:07 10° NNE 03:13:39 45° E 03:17:12 10° S visible
25 Oct 9.7 02:45:31 10° NE 02:48:17 20° E 02:51:04 10° SE visible
27 Oct 9.4 15:32:03 10° SSW 15:34:48 22° W 15:37:35 10° NW visible
28 Oct 8.5 03:02:22 10° NNE 03:05:47 35° E 03:09:12 10° SSE visible
